| time (UTC) | temp F | wind direction | speed MPH | gust MPH | rain 1hr in | rain 24hr in | rain mn in | humidity % | barometer mb |
| 20260505073545 | 49 | 192 | 1.0 | 3.0 | 0.00 | 0.00 | 0.00 | 75 | 1015.0 |
| 20260505073048 | 49 | 192 | 2.0 | 3.0 | 0.00 | 0.00 | 0.00 | 74 | 1015.1 |
| 20260505072541 | 50 | 192 | 1.0 | 3.0 | 0.00 | 0.00 | 0.00 | 73 | 1015.0 |
| 20260505072043 | 50 | 192 | 1.0 | 3.0 | 0.00 | 0.00 | 0.00 | 72 | 1015.0 |
| 20260505071540 | 51 | 192 | 0.0 | 4.0 | 0.00 | 0.00 | 0.00 | 70 | 1015.1 |
| 20260505071038 | 51 | 192 | 1.0 | 4.0 | 0.00 | 0.00 | 0.00 | 69 | 1015.1 |
| 20260505070537 | 52 | 192 | 0.0 | 1.0 | 0.00 | 0.00 | 0.00 | 68 | 1015.2 |
| 20260505070035 | 53 | 191 | 0.0 | 2.0 | 0.00 | 0.00 | 0.00 | 66 | 1015.2 |
| 20260505065534 | 54 | 191 | 0.0 | 2.0 | 0.00 | 0.00 | 0.00 | 64 | 1015.2 |
| 20260505065032 | 55 | 191 | 0.0 | 2.0 | 0.00 | 0.00 | 0.00 | 63 | 1015.2 |
| 20260505064537 | 55 | 191 | 0.0 | 5.0 | 0.00 | 0.00 | 0.00 | 62 | 1015.2 |
| 20260505064030 | 56 | 191 | 0.0 | 5.0 | 0.00 | 0.00 | 0.00 | 61 | 1015.2 |
| 20260505063529 | 56 | 209 | 2.0 | 6.0 | 0.00 | 0.00 | 0.00 | 61 | 1015.3 |
| 20260505063029 | 56 | 198 | 3.0 | 8.0 | 0.00 | 0.00 | 0.00 | 61 | 1015.3 |
| 20260505062529 | 56 | 229 | 5.0 | 8.0 | 0.00 | 0.00 | 0.00 | 61 | 1015.4 |
| 20260505062031 | 56 | 196 | 2.0 | 7.0 | 0.00 | 0.00 | 0.00 | 60 | 1015.3 |
| 20260505061528 | 56 | 236 | 1.0 | 7.0 | 0.00 | 0.00 | 0.00 | 60 | 1015.4 |
| 20260505055522 | 57 | 205 | 1.0 | 7.0 | 0.00 | 0.00 | 0.00 | 59 | 1015.4 |
| 20260505055022 | 57 | 188 | 4.0 | 10.0 | 0.00 | 0.00 | 0.00 | 59 | 1015.5 |
| 20260505054540 | 57 | 205 | 4.0 | 10.0 | 0.00 | 0.00 | 0.00 | 59 | 1015.4 |
| 20260505054020 | 57 | 157 | 2.0 | 11.0 | 0.00 | 0.00 | 0.00 | 58 | 1015.4 |
| 20260505053521 | 57 | 167 | 4.0 | 11.0 | 0.00 | 0.00 | 0.00 | 58 | 1015.4 |
| 20260505053018 | 57 | 182 | 5.0 | 10.0 | 0.00 | 0.00 | 0.00 | 58 | 1015.3 |
| 20260505052517 | 57 | 157 | 4.0 | 10.0 | 0.00 | 0.00 | 0.00 | 58 | 1015.4 |
| 20260505052017 | 57 | 178 | 5.0 | 10.0 | 0.00 | 0.00 | 0.00 | 59 | 1015.4 |
| 20260505051516 | 57 | 182 | 4.0 | 8.0 | 0.00 | 0.00 | 0.00 | 58 | 1015.3 |
| 20260505051015 | 57 | 186 | 4.0 | 8.0 | 0.00 | 0.00 | 0.00 | 58 | 1015.3 |
| 20260505050513 | 57 | 185 | 4.0 | 8.0 | 0.00 | 0.00 | 0.00 | 58 | 1015.4 |
| 20260505041506 | 58 | 197 | 3.0 | 8.0 | 0.00 | 0.00 | 0.00 | 56 | 1015.5 |
| 20260505041004 | 59 | 220 | 4.0 | 11.0 | 0.00 | 0.00 | 0.00 | 55 | 1015.6 |
| 20260505040504 | 59 | 182 | 5.0 | 14.0 | 0.00 | 0.00 | 0.00 | 55 | 1015.5 |
| 20260505040004 | 58 | 192 | 4.0 | 10.0 | 0.00 | 0.00 | 0.00 | 55 | 1015.7 |
| 20260505035502 | 59 | 211 | 4.0 | 10.0 | 0.00 | 0.00 | 0.00 | 55 | 1015.6 |
| 20260505035002 | 59 | 224 | 6.0 | 12.0 | 0.00 | 0.00 | 0.00 | 55 | 1015.7 |
| 20260505034502 | 59 | 188 | 7.0 | 12.0 | 0.00 | 0.00 | 0.00 | 54 | 1015.7 |
| 20260505034102 | 59 | 219 | 7.0 | 12.0 | 0.00 | 0.00 | 0.00 | 54 | 1015.8 |
| 20260505033501 | 59 | 189 | 3.0 | 10.0 | 0.00 | 0.00 | 0.00 | 54 | 1015.9 |
| 20260505033001 | 59 | 165 | 4.0 | 10.0 | 0.00 | 0.00 | 0.00 | 54 | 1016.0 |
| 20260505032502 | 59 | 187 | 6.0 | 12.0 | 0.00 | 0.00 | 0.00 | 53 | 1016.0 |
| 20260505032100 | 59 | 175 | 6.0 | 12.0 | 0.00 | 0.00 | 0.00 | 53 | 1016.1 |
| 20260505031606 | 60 | 229 | 7.0 | 12.0 | 0.00 | 0.00 | 0.00 | 53 | 1016.0 |
| 20260505031101 | 60 | 178 | 5.0 | 12.0 | 0.00 | 0.00 | 0.00 | 53 | 1016.0 |
| 20260505030602 | 60 | 188 | 6.0 | 10.0 | 0.00 | 0.00 | 0.00 | 53 | 1016.0 |
| 20260505030124 | 60 | 232 | 6.0 | 15.0 | 0.00 | 0.00 | 0.00 | 52 | 1016.2 |
| 20260505025600 | 60 | 190 | 8.0 | 15.0 | 0.00 | 0.00 | 0.00 | 52 | 1016.2 |
| 20260505025101 | 60 | 215 | 6.0 | 14.0 | 0.00 | 0.00 | 0.00 | 52 | 1016.2 |
| 20260505024612 | 60 | 177 | 5.0 | 10.0 | 0.00 | 0.00 | 0.00 | 53 | 1016.3 |
| 20260505024058 | 60 | 185 | 5.0 | 11.0 | 0.00 | 0.00 | 0.00 | 53 | 1016.3 |
| 20260505023559 | 60 | 219 | 5.0 | 11.0 | 0.00 | 0.00 | 0.00 | 53 | 1016.3 |
| 20260505023058 | 60 | 209 | 4.0 | 9.0 | 0.00 | 0.00 | 0.00 | 52 | 1016.2 |
| 20260505022603 | 60 | 205 | 4.0 | 10.0 | 0.00 | 0.00 | 0.00 | 52 | 1016.1 |
| 20260505022059 | 60 | 218 | 5.0 | 11.0 | 0.00 | 0.00 | 0.00 | 52 | 1016.3 |
| 20260505021559 | 60 | 210 | 4.0 | 12.0 | 0.00 | 0.00 | 0.00 | 52 | 1016.3 |
| 20260505021058 | 60 | 203 | 4.0 | 12.0 | 0.00 | 0.00 | 0.00 | 52 | 1016.2 |
| 20260505020558 | 61 | 192 | 6.0 | 14.0 | 0.00 | 0.00 | 0.00 | 52 | 1016.2 |
| 20260505020108 | 61 | 192 | 6.0 | 10.0 | 0.00 | 0.00 | 0.00 | 52 | 1016.1 |
| 20260505015557 | 61 | 198 | 6.0 | 14.0 | 0.00 | 0.00 | 0.00 | 53 | 1016.1 |
| 20260505015100 | 61 | 202 | 8.0 | 14.0 | 0.00 | 0.00 | 0.00 | 53 | 1016.1 |
| 20260505014558 | 61 | 188 | 6.0 | 12.0 | 0.00 | 0.00 | 0.00 | 54 | 1016.2 |
| 20260505014056 | 61 | 188 | 5.0 | 10.0 | 0.00 | 0.00 | 0.00 | 54 | 1016.2 |
| 20260505013556 | 61 | 200 | 5.0 | 8.0 | 0.00 | 0.00 | 0.00 | 54 | 1016.2 |
| 20260505013056 | 61 | 153 | 3.0 | 7.0 | 0.00 | 0.00 | 0.00 | 53 | 1016.1 |
| 20260505012558 | 61 | 178 | 4.0 | 7.0 | 0.00 | 0.00 | 0.00 | 53 | 1016.1 |
| 20260505012056 | 61 | 167 | 5.0 | 10.0 | 0.00 | 0.00 | 0.00 | 53 | 1016.1 |
| 20260505011601 | 62 | 176 | 5.0 | 10.0 | 0.00 | 0.00 | 0.00 | 52 | 1016.1 |
| 20260505011055 | 62 | 185 | 6.0 | 10.0 | 0.00 | 0.00 | 0.00 | 52 | 1016.0 |
| 20260505010555 | 62 | 161 | 7.0 | 12.0 | 0.00 | 0.00 | 0.00 | 52 | 1016.0 |
| 20260505010110 | 62 | 202 | 8.0 | 16.0 | 0.00 | 0.00 | 0.00 | 51 | 1015.9 |
| 20260505005555 | 62 | 220 | 7.0 | 17.0 | 0.00 | 0.00 | 0.00 | 52 | 1015.9 |
| 20260505005056 | 62 | 192 | 6.0 | 12.0 | 0.00 | 0.00 | 0.00 | 52 | 1015.8 |
| 20260505004624 | 62 | 184 | 5.0 | 12.0 | 0.00 | 0.00 | 0.00 | 52 | 1015.7 |
| 20260505004054 | 62 | 211 | 4.0 | 11.0 | 0.00 | 0.00 | 0.00 | 53 | 1015.6 |
| 20260505003555 | 62 | 178 | 5.0 | 12.0 | 0.00 | 0.00 | 0.00 | 53 | 1015.6 |
| 20260505003059 | 62 | 188 | 6.0 | 9.0 | 0.00 | 0.00 | 0.00 | 53 | 1015.5 |
| 20260505002555 | 62 | 172 | 4.0 | 9.0 | 0.00 | 0.00 | 0.00 | 53 | 1015.5 |
| 20260505002054 | 63 | 163 | 6.0 | 9.0 | 0.00 | 0.00 | 0.00 | 53 | 1015.5 |
| 20260505001554 | 63 | 178 | 2.0 | 9.0 | 0.00 | 0.00 | 0.00 | 54 | 1015.5 |
| 20260505001053 | 63 | 172 | 4.0 | 9.0 | 0.00 | 0.00 | 0.00 | 54 | 1015.6 |
| 20260505000555 | 63 | 180 | 3.0 | 8.0 | 0.00 | 0.00 | 0.00 | 54 | 1015.5 |
| 20260505000107 | 64 | 181 | 4.0 | 8.0 | 0.00 | 0.00 | 0.00 | 53 | 1015.5 |
| 20260504235553 | 64 | 174 | 4.0 | 11.0 | 0.00 | 0.00 | 0.00 | 52 | 1015.5 |
| 20260504235053 | 65 | 175 | 8.0 | 12.0 | 0.00 | 0.00 | 0.00 | 51 | 1015.5 |
| 20260504234553 | 65 | 173 | 4.0 | 10.0 | 0.00 | 0.00 | 0.00 | 52 | 1015.5 |
| 20260504234052 | 66 | 180 | 7.0 | 12.0 | 0.00 | 0.00 | 0.00 | 50 | 1015.5 |
| 20260504233552 | 66 | 203 | 7.0 | 12.0 | 0.00 | 0.00 | 0.00 | 49 | 1015.4 |
| 20260504233052 | 66 | 225 | 6.0 | 9.0 | 0.00 | 0.00 | 0.00 | 50 | 1015.3 |
| 20260504232552 | 67 | 185 | 3.0 | 9.0 | 0.00 | 0.00 | 0.00 | 50 | 1015.3 |
| 20260504232051 | 67 | 175 | 6.0 | 10.0 | 0.00 | 0.00 | 0.00 | 49 | 1015.3 |
| 20260504231620 | 67 | 171 | 6.0 | 10.0 | 0.00 | 0.00 | 0.00 | 49 | 1015.2 |
| 20260504231051 | 67 | 232 | 7.0 | 17.0 | 0.00 | 0.00 | 0.00 | 49 | 1015.2 |
| 20260504230551 | 67 | 168 | 6.0 | 18.0 | 0.00 | 0.00 | 0.00 | 49 | 1015.1 |
| 20260504230051 | 68 | 198 | 6.0 | 18.0 | 0.00 | 0.00 | 0.00 | 47 | 1015.1 |
| 20260504225551 | 68 | 175 | 7.0 | 11.0 | 0.00 | 0.00 | 0.00 | 47 | 1015.2 |
| 20260504225054 | 68 | 171 | 6.0 | 12.0 | 0.00 | 0.00 | 0.00 | 47 | 1015.3 |
| 20260504224550 | 68 | 198 | 8.0 | 12.0 | 0.00 | 0.00 | 0.00 | 46 | 1015.2 |
| 20260504224049 | 68 | 187 | 6.0 | 12.0 | 0.00 | 0.00 | 0.00 | 46 | 1015.1 |
| 20260504223549 | 69 | 187 | 5.0 | 12.0 | 0.00 | 0.00 | 0.00 | 46 | 1015.1 |
| 20260504223049 | 69 | 188 | 7.0 | 12.0 | 0.00 | 0.00 | 0.00 | 46 | 1015.2 |
| 20260504222549 | 69 | 180 | 6.0 | 11.0 | 0.00 | 0.00 | 0.00 | 46 | 1015.2 |
| 20260504222048 | 69 | 198 | 8.0 | 11.0 | 0.00 | 0.00 | 0.00 | 45 | 1015.2 |
| 20260504221625 | 69 | 190 | 6.0 | 12.0 | 0.00 | 0.00 | 0.00 | 46 | 1015.2 |
| 20260504221048 | 69 | 211 | 5.0 | 12.0 | 0.00 | 0.00 | 0.00 | 47 | 1015.2 |
| 20260504220547 | 69 | 187 | 5.0 | 14.0 | 0.00 | 0.00 | 0.00 | 48 | 1015.2 |
| 20260504220047 | 68 | 187 | 8.0 | 16.0 | 0.00 | 0.00 | 0.00 | 46 | 1015.2 |
| 20260504215546 | 69 | 169 | 5.0 | 11.0 | 0.00 | 0.00 | 0.00 | 47 | 1015.3 |
| 20260504215045 | 69 | 179 | 6.0 | 11.0 | 0.00 | 0.00 | 0.00 | 47 | 1015.3 |
| 20260504214545 | 69 | 187 | 5.0 | 10.0 | 0.00 | 0.00 | 0.00 | 46 | 1015.3 |
| 20260504214044 | 69 | 190 | 4.0 | 9.0 | 0.00 | 0.00 | 0.00 | 46 | 1015.4 |
| 20260504213544 | 69 | 186 | 4.0 | 12.0 | 0.00 | 0.00 | 0.00 | 47 | 1015.3 |
| 20260504213045 | 69 | 203 | 5.0 | 13.0 | 0.00 | 0.00 | 0.00 | 47 | 1015.4 |
| 20260504212545 | 69 | 202 | 7.0 | 13.0 | 0.00 | 0.00 | 0.00 | 48 | 1015.4 |
| 20260504212043 | 69 | 167 | 5.0 | 12.0 | 0.00 | 0.00 | 0.00 | 47 | 1015.4 |
| 20260504211542 | 69 | 171 | 5.0 | 13.0 | 0.00 | 0.00 | 0.00 | 49 | 1015.3 |
| 20260504211041 | 69 | 205 | 7.0 | 13.0 | 0.00 | 0.00 | 0.00 | 48 | 1015.5 |
| 20260504210543 | 68 | 182 | 4.0 | 12.0 | 0.00 | 0.00 | 0.00 | 50 | 1015.4 |
| 20260504210046 | 68 | 184 | 5.0 | 15.0 | 0.00 | 0.00 | 0.00 | 49 | 1015.5 |
| 20260504205542 | 69 | 207 | 9.0 | 12.0 | 0.00 | 0.00 | 0.00 | 48 | 1015.4 |
| 20260504205039 | 69 | 233 | 4.0 | 10.0 | 0.00 | 0.00 | 0.00 | 50 | 1015.5 |
| 20260504204540 | 69 | 180 | 5.0 | 14.0 | 0.00 | 0.00 | 0.00 | 49 | 1015.6 |
| 20260504204041 | 69 | 239 | 6.0 | 14.0 | 0.00 | 0.00 | 0.00 | 50 | 1015.6 |
| 20260504203539 | 70 | 265 | 8.0 | 14.0 | 0.00 | 0.00 | 0.00 | 47 | 1015.5 |
| 20260504203038 | 70 | 210 | 5.0 | 12.0 | 0.00 | 0.00 | 0.00 | 49 | 1015.5 |
| 20260504202537 | 70 | 274 | 5.0 | 16.0 | 0.00 | 0.00 | 0.00 | 49 | 1015.6 |
| 20260504202036 | 69 | 232 | 9.0 | 16.0 | 0.00 | 0.00 | 0.00 | 47 | 1015.6 |
| 20260504201535 | 69 | 242 | 11.0 | 19.0 | 0.00 | 0.00 | 0.00 | 48 | 1015.7 |
| 20260504201037 | 69 | 271 | 9.0 | 19.0 | 0.00 | 0.00 | 0.00 | 50 | 1015.9 |
| 20260504200534 | 69 | 265 | 8.0 | 17.0 | 0.00 | 0.00 | 0.00 | 49 | 1015.8 |
| 20260504200033 | 69 | 286 | 8.0 | 18.0 | 0.00 | 0.00 | 0.00 | 50 | 1015.8 |
| 20260504195534 | 68 | 250 | 8.0 | 19.0 | 0.00 | 0.00 | 0.00 | 51 | 1015.8 |
| 20260504195031 | 68 | 247 | 12.0 | 19.0 | 0.00 | 0.00 | 0.00 | 50 | 1016.1 |
| 20260504194531 | 68 | 209 | 9.0 | 21.0 | 0.00 | 0.00 | 0.00 | 51 | 1016.0 |
| 20260504194030 | 68 | 199 | 11.0 | 19.0 | 0.00 | 0.00 | 0.00 | 51 | 1016.2 |
| 20260504193631 | 68 | 219 | 7.0 | 15.0 | 0.00 | 0.00 | 0.00 | 52 | 1016.1 |
| 20260504193028 | 67 | 250 | 10.0 | 17.0 | 0.00 | 0.00 | 0.00 | 52 | 1016.3 |
| 20260504192527 | 68 | 290 | 8.0 | 17.0 | 0.00 | 0.00 | 0.00 | 52 | 1016.4 |
| 20260504192028 | 68 | 275 | 8.0 | 13.0 | 0.00 | 0.00 | 0.00 | 50 | 1016.5 |
| 20260504191537 | 68 | 281 | 8.0 | 15.0 | 0.00 | 0.00 | 0.00 | 51 | 1016.5 |
| 20260504191025 | 68 | 244 | 7.0 | 15.0 | 0.00 | 0.00 | 0.00 | 53 | 1016.7 |
| 20260504190523 | 67 | 270 | 6.0 | 14.0 | 0.00 | 0.00 | 0.00 | 53 | 1016.7 |
| 20260504190024 | 66 | 214 | 5.0 | 13.0 | 0.00 | 0.00 | 0.00 | 60 | 1016.9 |
| 20260504185520 | 66 | 270 | 7.0 | 13.0 | 0.00 | 0.00 | 0.00 | 55 | 1017.0 |
| 20260504185020 | 66 | 270 | 7.0 | 13.0 | 0.00 | 0.00 | 0.00 | 55 | 1017.0 |
| 20260504184538 | 66 | 265 | 7.0 | 13.0 | 0.00 | 0.00 | 0.00 | 53 | 1017.1 |
| 20260504184020 | 66 | 270 | 5.0 | 9.0 | 0.00 | 0.00 | 0.00 | 54 | 1017.0 |
| 20260504183518 | 66 | 292 | 6.0 | 11.0 | 0.00 | 0.00 | 0.00 | 55 | 1017.0 |
| 20260504183019 | 66 | 270 | 6.0 | 12.0 | 0.00 | 0.00 | 0.00 | 53 | 1017.1 |
| 20260504182522 | 66 | 223 | 8.0 | 16.0 | 0.00 | 0.00 | 0.00 | 55 | 1017.2 |
| 20260504182015 | 66 | 272 | 10.0 | 16.0 | 0.00 | 0.00 | 0.00 | 54 | 1017.2 |
| 20260504181518 | 65 | 267 | 11.0 | 16.0 | 0.00 | 0.00 | 0.00 | 55 | 1017.3 |
| 20260504181015 | 65 | 252 | 3.0 | 13.0 | 0.00 | 0.00 | 0.00 | 56 | 1017.3 |
| 20260504180514 | 65 | 273 | 6.0 | 13.0 | 0.00 | 0.00 | 0.00 | 56 | 1017.3 |
| 20260504180012 | 65 | 259 | 6.0 | 10.0 | 0.00 | 0.00 | 0.00 | 55 | 1017.3 |
| 20260504175513 | 65 | 263 | 5.0 | 14.0 | 0.00 | 0.00 | 0.00 | 57 | 1017.4 |
| 20260504175015 | 64 | 317 | 7.0 | 17.0 | 0.00 | 0.00 | 0.00 | 57 | 1017.5 |
| 20260504174511 | 65 | 224 | 10.0 | 16.0 | 0.00 | 0.00 | 0.00 | 56 | 1017.5 |
| 20260504174010 | 65 | 239 | 8.0 | 14.0 | 0.00 | 0.00 | 0.00 | 56 | 1017.5 |
| 20260504173508 | 64 | 260 | 9.0 | 17.0 | 0.00 | 0.00 | 0.00 | 56 | 1017.7 |
| 20260504173014 | 64 | 210 | 10.0 | 17.0 | 0.00 | 0.00 | 0.00 | 56 | 1017.7 |
| 20260504172507 | 64 | 235 | 7.0 | 12.0 | 0.00 | 0.00 | 0.00 | 56 | 1017.8 |
| 20260504172006 | 63 | 232 | 7.0 | 14.0 | 0.00 | 0.00 | 0.00 | 57 | 1017.8 |
| 20260504171505 | 63 | 248 | 7.0 | 16.0 | 0.00 | 0.00 | 0.00 | 59 | 1017.7 |
| 20260504171005 | 63 | 235 | 6.0 | 16.0 | 0.00 | 0.00 | 0.00 | 58 | 1017.8 |
| 20260504170504 | 63 | 244 | 6.0 | 15.0 | 0.00 | 0.00 | 0.00 | 62 | 1017.8 |
| 20260504151051 | 57 | 267 | 11.0 | 17.0 | 0.00 | 0.00 | 0.00 | 60 | 1019.1 |
| 20260504150552 | 57 | 267 | 7.0 | 13.0 | 0.00 | 0.00 | 0.00 | 59 | 1019.0 |
| 20260504141049 | 58 | 254 | 8.0 | 16.0 | 0.00 | 0.00 | 0.00 | 56 | 1019.3 |
| 20260504140546 | 57 | 215 | 9.0 | 15.0 | 0.00 | 0.00 | 0.00 | 56 | 1019.1 |
| 20260504130532 | 53 | 285 | 5.0 | 16.0 | 0.00 | 0.00 | 0.00 | 62 | 1019.2 |
| 20260504110515 | 45 | 249 | 5.0 | 11.0 | 0.00 | 0.00 | 0.00 | 69 | 1018.8 |
| 20260504100510 | 40 | 259 | 0.0 | 2.0 | 0.00 | 0.00 | 0.00 | 79 | 1018.9 |
| 20260504081559 | 43 | 259 | 3.0 | 6.0 | 0.00 | 0.00 | 0.00 | 73 | 1019.0 |
| 20260504081059 | 43 | 259 | 3.0 | 6.0 | 0.00 | 0.00 | 0.00 | 72 | 1019.1 |
| 20260504080558 | 44 | 259 | 3.0 | 6.0 | 0.00 | 0.00 | 0.00 | 71 | 1019.1 |